VA3DLF Weather Reports


time (UTC)temp
C
wind
direction
speed
KPH
gust
KPH
rain 1hr
cm
rain 24hr
cm
rain mn
cm
humidity
%
barometer
mb
20180619004733 22 319 9.7 8.0 0.00 0.00 3.30
20180619004231 22 301 14.5 11.3 0.00 0.00 3.30
20180619003731 22 335 11.3 9.7 0.00 0.00 3.30
20180619003232 22 314 12.9 8.0 0.00 0.00 3.30
20180619002730 22 308 12.9 12.9 0.00 0.00 3.30
20180619002230 22 291 9.7 16.1 0.00 0.00 3.30
20180619001730 23 308 9.7 6.4 0.00 0.00 3.30
20180619001227 23 323 11.3 9.7 0.00 0.00 3.30
20180619000728 23 321 14.5 12.9 0.00 0.00 3.30
20180619000228 23 294 12.9 9.7 0.00 0.00 3.30
20180618235726 23 316 16.1 12.9 0.00 0.00 3.30
20180618235227 23 307 11.3 11.3 0.00 0.00 3.30
20180618234225 23 305 14.5 11.3 0.00 0.00 3.30
20180618233725 23 318 14.5 11.3 0.00 0.00 3.30
20180618233225 23 321 17.7 11.3 0.00 0.00 3.30
20180618232722 23 284 16.1 17.7 0.00 0.00 3.30
20180618231722 23 284 12.9 12.9 0.00 0.00 3.30
20180618231220 23 297 9.7 6.4 0.00 0.00 3.30
20180618230720 23 294 9.7 11.3 0.00 0.00 3.30
20180618230221 23 322 11.3 11.3 0.00 0.00 3.30
20180618225718 23 314 14.5 16.1 0.00 0.00 3.30
20180618225219 24 315 12.9 14.5 0.00 0.00 3.30
20180618224217 23 266 12.9 11.3 0.00 0.00 3.30
20180618223717 24 288 11.3 12.9 0.00 0.00 3.30
20180618223218 24 284 11.3 16.1 0.00 0.00 3.30
20180618222716 24 281 11.3 12.9 0.00 0.00 3.30
20180618222216 24 278 12.9 14.5 0.00 0.00 3.30
20180618221716 24 276 14.5 12.9 0.00 0.00 3.30
20180618221214 24 274 17.7 11.3 0.00 0.00 3.30
20180618220714 24 271 14.5 14.5 0.00 0.00 3.30
20180618215213 24 291 12.9 12.9 0.76 0.00 3.30
20180618214210 24 291 12.9 17.7 0.76 0.00 3.30
20180618213708 24 294 14.5 17.7 0.76 0.00 3.30
20180618212205 25 291 19.3 22.5 0.76 0.00 3.30
20180618211706 24 262 14.5 11.3 0.76 0.00 3.30
20180618211203 24 270 14.5 22.5 0.76 0.00 3.30
20180618210204 24 280 14.5 12.9 0.76 0.00 3.30
20180618205702 25 256 20.9 9.7 0.76 0.00 3.30
20180618204702 23 284 22.5 17.7 0.51 0.00 3.30
20180618204159 24 297 12.9 17.7 0.51 0.00 3.30
20180618203200 23 259 14.5 8.0 0.51 0.00 3.30
20180618202159 23 280 16.1 14.5 0.51 0.00 3.30
20180618201700 23 287 14.5 20.9 0.51 0.00 3.30
20180618200158 23 266 19.3 14.5 0.51 0.00 3.05
20180618195155 23 266 25.7 24.1 0.25 0.00 2.54
20180618194153 24 252 22.5 25.7 0.25 0.00 2.03
20180618193653 25 252 19.3 12.9 0.25 0.00 2.03
20180618193154 25 221 20.9 20.9 0.25 0.00 2.03
20180618192651 25 262 20.9 12.9 0.25 0.00 2.03
20180618192151 25 249 20.9 24.1 0.25 0.00 2.03
20180618191651 26 263 17.7 27.4 0.25 0.00 2.03
20180618191148 26 273 17.7 12.9 0.25 0.00 2.03
20180618190648 26 255 16.1 16.1 0.25 0.00 2.03
20180618185646 27 263 12.9 12.9 0.25 0.00 2.03
20180618184144 26 283 19.3 12.9 1.78 0.00 2.03
20180618182643 26 278 16.1 14.5 1.78 0.00 2.03
20180618182143 26 250 11.3 9.7 1.78 0.00 2.03
20180618181644 26 252 11.3 14.5 1.78 0.00 2.03
20180618180641 25 280 12.9 9.7 1.78 0.00 1.78
20180618180142 25 284 11.3 14.5 1.78 0.00 1.78
20180618175640 25 267 12.9 9.7 1.78 0.00 1.78
20180618175140 25 266 12.9 16.1 0.00 0.00 1.78
20180618174640 25 277 12.9 11.3 0.00 0.00 1.78
20180618174138 25 283 12.9 8.0 0.00 0.00 1.78
20180618173638 25 274 9.7 8.0 0.00 0.00 1.78
20180618172635 26 236 16.1 17.7 0.00 0.00 1.02
20180618172136 26 255 25.7 22.5 0.00 0.00 0.00
20180618171636 27 276 17.7 22.5 0.00 0.00 0.00
20180618171134 27 262 19.3 16.1 0.00 0.00 0.00
20180618170634 27 255 12.9 14.5 0.00 0.00 0.00
20180618165132 27 253 20.9 11.3 0.00 0.00 0.00
20180618164130 28 283 16.1 16.1 0.00 0.00 0.00
20180618163630 28 270 12.9 9.7 0.00 0.00 0.00
20180618163131 28 248 17.7 19.3 0.00 0.00 0.00
20180618162129 28 288 14.5 17.7 0.00 0.00 0.00
20180618161629 29 249 17.7 19.3 0.00 0.00 0.00
20180618161127 29 250 12.9 22.5 0.00 0.00 0.00
20180618160128 29 273 16.1 14.5 0.00 0.00 0.00
20180618155625 29 239 16.1 19.3 0.00 0.00 0.00
20180618155126 28 266 14.5 12.9 0.00 0.00 0.00
20180618154626 28 270 14.5 12.9 0.00 0.00 0.00
20180618154124 28 253 16.1 16.1 0.00 0.00 0.00
20180618153624 28 269 14.5 16.1 0.00 0.00 0.00
20180618153125 28 274 12.9 11.3 0.00 0.00 0.00
20180618152622 28 266 14.5 12.9 0.00 0.00 0.00
20180618152123 28 277 14.5 8.0 0.00 0.00 0.00
20180618151623 27 264 19.3 9.7 0.00 0.00 0.00
20180618151120 27 256 14.5 14.5 0.00 0.00 0.00
20180618145618 27 293 16.1 12.9 0.00 0.00 0.00
20180618145119 27 273 17.7 14.5 0.00 0.00 0.00
20180618144620 27 250 17.7 17.7 0.00 0.00 0.00
20180618143617 27 245 17.7 14.5 0.00 0.00 0.00
20180618143118 27 302 19.3 16.1 0.00 0.00 0.00
20180618140615 27 262 16.1 12.9 0.00 0.00 0.00
20180618135613 27 269 17.7 17.7 0.00 0.00 0.00
20180618135114 26 276 24.1 27.4 0.00 0.00 0.00
20180618134614 26 263 19.3 22.5 0.00 0.00 0.00
20180618134112 27 259 16.1 17.7 0.00 0.00 0.00
20180618133612 26 285 16.1 8.0 0.00 0.00 0.00
20180618133114 26 264 16.1 12.9 0.00 0.00 0.00
20180618132611 26 277 12.9 11.3 0.00 0.00 0.00
20180618131612 26 263 16.1 9.7 0.00 0.00 0.00
20180618130609 25 259 17.7 20.9 0.00 0.00 0.00
20180618130109 25 238 14.5 14.5 0.00 0.00 0.00
20180618124607 25 242 11.3 12.9 0.00 0.00 0.00
20180618124105 25 267 12.9 12.9 0.00 0.00 0.00
20180618121103 25 271 14.5 12.9 0.00 0.00 0.00
20180618115601 25 283 12.9 11.3 0.00 0.00 0.00
20180618115102 25 256 11.3 11.3 0.00 0.00 0.00
20180618114601 25 257 11.3 14.5 0.00 0.00 0.00
20180618114058 24 257 12.9 12.9 0.00 0.00 0.00
20180618113558 24 287 12.9 12.9 0.00 0.00 0.00
20180618113059 24 273 14.5 9.7 0.00 0.00 0.00
20180618112556 23 264 9.7 12.9 0.00 0.00 0.00
20180618112057 23 253 12.9 14.5 0.00 0.00 0.00
20180618111558 23 262 11.3 9.7 0.00 0.00 0.00
20180618111055 23 260 9.7 6.4 0.00 0.00 0.00
20180618110556 23 226 12.9 6.4 0.00 0.00 0.00
20180618105554 22 238 9.7 8.0 0.00 0.00 0.00
20180618105054 22 263 9.7 9.7 0.00 0.00 0.00
20180618104555 22 248 11.3 11.3 0.00 0.00 0.00
20180618104053 22 264 11.3 6.4 0.00 0.00 0.00
20180618103553 22 266 9.7 9.7 0.00 0.00 0.00
20180618103054 21 256 9.7 9.7 0.00 0.00 0.00
20180618102051 21 257 9.7 11.3 0.00 0.00 0.00
20180618101630 21 270 8.0 6.4 0.00 0.00 0.00
20180618101551 21 270 8.0 6.4 0.00 0.00 0.00
20180618101049 21 250 8.0 8.0 0.00 0.00 0.00
20180618100050 21 284 9.7 8.0 0.00 0.00 0.00
20180618095548 21 273 8.0 6.4 0.00 0.00 0.00
20180618095049 21 255 6.4 9.7 0.00 0.00 0.00
20180618094549 21 293 9.7 6.4 0.00 0.00 0.00
20180618094047 21 271 6.4 4.8 0.00 0.00 0.00
20180618093547 21 255 8.0 6.4 0.00 0.00 0.00
20180618093048 21 264 9.7 4.8 0.00 0.00 0.00
20180618092545 21 246 8.0 4.8 0.00 0.00 0.00
20180618092046 21 263 8.0 4.8 0.00 0.00 0.00
20180618091044 21 205 9.7 6.4 0.00 0.00 0.00
20180618090545 21 236 8.0 6.4 0.00 0.00 0.00
20180618090046 21 267 6.4 6.4 0.00 0.00 0.00
20180618085544 21 256 11.3 6.4 0.00 0.00 0.00
20180618085044 21 302 8.0 9.7 0.00 0.00 0.00
20180618084546 21 233 8.0 8.0 0.00 0.00 0.00
20180618084041 21 242 6.4 14.5 0.00 0.00 0.00
20180618083042 21 249 8.0 4.8 0.00 0.00 0.00
20180618082540 21 278 6.4 4.8 0.00 0.00 0.00
20180618082041 21 246 4.8 4.8 0.00 0.00 0.00
20180618081541 21 240 8.0 8.0 0.00 0.00 0.00
20180618081038 21 243 6.4 9.7 0.00 0.00 0.00
20180618080538 21 231 6.4 8.0 0.00 0.00 0.00
20180618080039 21 253 6.4 6.4 0.00 0.00 0.00
20180618074538 21 280 9.7 8.0 0.00 0.00 0.00
20180618073037 21 264 8.0 6.4 0.00 0.00 0.00
20180618072535 21 238 6.4 9.7 0.00 0.00 0.00
20180618071032 21 276 8.0 8.0 0.00 0.00 0.00
20180618070533 21 278 8.0 8.0 0.00 0.00 0.00
20180618070033 21 245 8.0 6.4 0.00 0.00 0.00
20180618065032 21 263 6.4 3.2 0.00 0.00 0.00
20180618064533 21 246 6.4 6.4 0.00 0.00 0.00
20180618064030 21 225 4.8 8.0 0.00 0.00 0.00
20180618062529 21 250 6.4 9.7 0.00 0.00 0.00
20180618062029 21 259 6.4 6.4 0.00 0.00 0.00
20180618061530 21 229 6.4 1.6 0.00 0.00 0.00
20180618060113 21 232 6.4 3.2 0.00 0.00 0.00
20180618060028 21 232 6.4 3.2 0.00 0.00 0.00
20180618055526 21 250 6.4 4.8 0.00 0.00 0.00
20180618055026 21 215 6.4 9.7 0.00 0.00 0.00
20180618054025 21 239 8.0 8.0 0.00 0.00 0.00
20180618053525 21 259 8.0 6.4 0.00 0.00 0.00
20180618053025 21 249 6.4 8.0 0.00 0.00 0.00
20180618051524 21 248 4.8 4.8 0.00 0.00 0.00
20180618050023 21 204 3.2 4.8 0.00 0.00 0.00
20180618045021 21 152 3.2 1.6 0.00 0.00 0.00
20180618044019 21 148 1.6 1.6 0.00 0.00 0.00
20180618043520 21 243 0.0 1.6 0.00 0.00 0.00
20180618043020 21 240 3.2 4.8 0.00 0.00 0.00
20180618041518 21 165 1.6 3.2 0.00 0.00 0.00
20180618040517 21 236 3.2 1.6 0.00 0.00 0.00
20180618040017 21 236 0.0 4.8 0.00 0.00 0.00
20180618035514 21 198 3.2 4.8 0.00 0.00 0.00
20180618035015 21 186 6.4 3.2 0.00 0.00 0.00
20180618034012 21 235 4.8 4.8 0.00 0.00 0.00
20180618033513 22 160 3.2 3.2 0.00 0.00 0.00
20180618033013 22 210 4.8 4.8 0.00 0.00 0.00
20180618032511 22 195 4.8 3.2 0.00 0.00 0.00
20180618032011 22 218 4.8 3.2 0.00 0.00 0.00
20180618030510 22 235 1.6 0.0 0.00 0.00 0.00
20180618025509 22 210 0.0 0.0 0.00 0.00 0.00
20180618025141 22 219 3.2 3.2 0.00 0.00 0.00
20180618025009 22 219 3.2 3.2 0.00 0.00 0.00
20180618024007 22 177 3.2 4.8 0.00 0.00 0.00
20180618023508 22 246 1.6 1.6 0.00 0.00 0.00
20180618023008 22 150 3.2 0.0 0.00 0.00 0.00
20180618020505 22 269 0.0 3.2 0.00 0.00 0.00
20180618020006 22 235 0.0 0.0 0.00 0.00 0.00
20180618015503 22 187 3.2 1.6 0.00 0.00 0.00
20180618015003 23 198 1.6 3.2 0.00 0.00 0.00
20180618014504 23 224 1.6 0.0 0.00 0.00 0.00
20180618013502 23 174 3.2 3.2 0.00 0.00 0.00
20180618013002 23 184 4.8 4.8 0.00 0.00 0.00
20180618012500 23 166 3.2 3.2 0.00 0.00 0.00
20180618012001 23 184 4.8 4.8 0.00 0.00 0.00
20180618010959 23 204 0.0 0.0 0.00 0.00 0.00
20180618010500 23 222 1.6 3.2 0.00 0.00 0.00
20180618010000 24 159 3.2 3.2 0.00 0.00 0.00
20180618005458 24 245 4.8 3.2 0.00 0.00 0.00